Zurück zum Katalog

DELTA 1 DEB

AktivLEO
NORAD 10824·DEBRIS·🇺🇸 United States

Gestartet Jul 29, 1976 von Vandenberg Space Force Base

Loading…

Nächste Überflüge (nächste 24 Stunden)

TLE

AktuellSource: Space-Track

Epoche: Sep 14, 2026, 13:18 UTC

1 10824U 76077BU  26257.55484525  .00011758  00000-0  66886-2 0  9990
2 10824 101.9400 178.7208 0017619 230.4543 305.6074 14.09949034393430

Verfolge DELTA 1 DEB in Echtzeit mit AllMySat

Download on the App Store